Weather History for Pine Bluff, AR

Change the Weather History Date:

Friday, November 30, 2012

  Actual Average Record
Temperature  
Mean Temperature 50 °F 48 °F  
Max Temperature 67 °F 58 °F 80 °F (1933)
Min Temperature 33 °F 38 °F 18 °F (1911)
Degree Days  
Heating Degree Days 15 17  
Month to date heating degree days 411 367  
Since 1 July heating degree days 584 504  
Cooling Degree Days 0 0  
Month to date cooling degree days 5 12  
Year to date cooling degree days 2383 2131  
Moisture  
Dew Point 44 °F    
Average Humidity 76    
Maximum Humidity 93    
Minimum Humidity 58    
Precipitation  
Precipitation 0.00 in 0.18 in 1.74 in (1991)
Month to date precipitation 2.21 4.83  
Year to date precipitation 40.50 45.71  
Snow  
Snow 0.00 in 0.00 in T in (1974)
Month to date snowfall 0.0 0.0  
Since 1 July snowfall 0.0 0.0  
Since 1 September snowfall 0.0 0.0  
Snow Depth 0.00 in    
Sea Level Pressure  
Sea Level Pressure 30.21 in    
Wind  
Wind Speed 3 mph (SSE)    
Max Wind Speed 12 mph    
Max Gust Speed 13 mph    
Visibility 10 miles    
Events      
T = Trace of Precipitation, MM = Missing Value Source: NWS Daily Summary

Daily Weather History Graph

Daily Weather History Graph

Search for Another Location

Airport:

Trip Planner

Search our weather history database for the weather conditions in past years. The results will help you decide how hot, cold, wet, or windy it might be!

Date:

Astronomy

Nov. 30, 2012 Rise Set
Actual Time 6:54 AM CST 4:58 PM CST
Civil Twilight 6:27 AM CST 5:25 PM CST
Nautical Twilight 5:56 AM CST 5:56 PM CST
Astronomical Twilight 5:26 AM CST 6:26 PM CST
Moon 6:52 PM CST (11/30) 8:27 AM CST (11/30)
Length of Visible Light 10h 57m
Length of Day
10h 03m
Waning Gibbous, 96% of the Moon is Illuminated
Nov 30
Waning Gibbous
Dec 6
Last Quarter
Dec 13
New
Dec 19
First Quarter
Dec 28
Full

Hourly Weather History & Observations

Time (CST) Temp. Windchill Dew Point Humidity Pressure Visibility Wind Dir Wind Speed Gust Speed Precip Events Conditions
12:53 AM 36.0 °F - 32.0 °F 86% 30.23 in 10.0 mi Calm Calm - N/A   Clear
1:53 AM 35.1 °F - 32.0 °F 89% 30.23 in 10.0 mi Calm Calm - N/A   Clear
2:53 AM 36.0 °F - 32.0 °F 86% 30.22 in 10.0 mi Calm Calm - N/A   Clear
3:53 AM 35.1 °F - 32.0 °F 89% 30.22 in 10.0 mi Calm Calm - N/A   Clear
4:53 AM 35.1 °F - 33.1 °F 92% 30.22 in 10.0 mi Calm Calm - N/A   Clear
5:53 AM 36.0 °F 33.3 °F 33.1 °F 89% 30.24 in 10.0 mi ESE 3.5 mph - N/A   Clear
6:53 AM 37.0 °F - 34.0 °F 89% 30.26 in 10.0 mi Calm Calm - N/A   Clear
7:53 AM 39.9 °F - 37.0 °F 89% 30.27 in 10.0 mi Calm Calm - N/A   Overcast
8:53 AM 44.1 °F - 39.9 °F 85% 30.28 in 10.0 mi Calm Calm - N/A   Overcast
9:53 AM 50.0 °F - 44.1 °F 80% 30.27 in 9.0 mi South 3.5 mph - N/A   Mostly Cloudy
10:53 AM 54.0 °F - 46.9 °F 77% 30.27 in 9.0 mi SSE 4.6 mph - N/A   Overcast
11:53 AM 60.1 °F - 50.0 °F 69% 30.23 in 10.0 mi South 9.2 mph - N/A   Overcast
12:53 PM 63.0 °F - 51.1 °F 65% 30.20 in 10.0 mi SSW 4.6 mph - N/A   Mostly Cloudy
1:53 PM 64.9 °F - 51.1 °F 61% 30.18 in 10.0 mi SE 4.6 mph - N/A   Partly Cloudy
2:53 PM 64.9 °F - 51.1 °F 61% 30.17 in 10.0 mi SSE 8.1 mph - N/A   Mostly Cloudy
3:53 PM 66.0 °F - 51.1 °F 59% 30.16 in 10.0 mi SSE 8.1 mph - N/A   Clear
4:53 PM 60.1 °F - 51.1 °F 72% 30.15 in 10.0 mi South 4.6 mph - N/A   Clear
5:53 PM 57.9 °F - 51.1 °F 78% 30.17 in 10.0 mi Calm Calm - N/A   Scattered Clouds
6:53 PM 55.0 °F - 50.0 °F 83% 30.17 in 10.0 mi SSE 4.6 mph - N/A   Clear
7:53 PM 55.0 °F - 50.0 °F 83% 30.18 in 10.0 mi SSE 5.8 mph - N/A   Scattered Clouds
8:53 PM 51.1 °F - 48.9 °F 92% 30.18 in 10.0 mi East 3.5 mph - N/A   Clear
9:53 PM 53.1 °F - 51.1 °F 93% 30.18 in 10.0 mi Calm Calm - N/A   Overcast
10:53 PM 54.0 °F - 51.1 °F 90% 30.18 in 10.0 mi SE 3.5 mph - N/A   Overcast
11:53 PM 55.0 °F - 52.0 °F 89% 30.17 in 10.0 mi SE 4.6 mph - N/A   Overcast